Southern Illinois Airport Carbondale,Murphysboro US
ICAO: KMDH
IATA: MDH
Category: Medium
Scheduled Services: No

Elevation: 411 ft
TransAlt. 18000 ft.

Airport Communications:
ATIS:119.85
KANSAS CITY CNTR:125.3
CTAF:125.35
GND:121.8
CARBONDALE TWR:125.35
UNICOM:122.95

KMDH Zoom In..

If you have problems with the map follow the link
https://www.worldairports.se/pages/airport.php?
ICAO=KMDH

Runways:

(A) RW 06 length 4163 ft width 100 ft
---- / hdg 62

(B) RW 18L length 6506 ft width 100 ft
ILS 110.90 / hdg 182

(C) RW 18R length 3498 ft width 60 ft
---- / hdg 182

(D) RW 24 length 4163 ft width 100 ft
---- / hdg 242

(E) RW 36L length 3498 ft width 60 ft
---- / hdg 2

(F) RW 36R length 6506 ft width 100 ft
---- / hdg 2

Location; KMDH
Day. 19 / Time. 01.52 Zulu
* Altimeter: 30.21
* Temperature: 01° c. 33.8°f.
* Wind from: 300° Speed 14 kn with Gusts up to 21 kn.
Dewpoint: -08° c.
Visibility: 10 Statute Miles.
Clouds: Clear (automated report).

KMDH 190152Z 30014G21KT 10SM CLR 01/M08 A3021 RMK AO2 PK WND 29026/0140 SLP233 T00061078


Wind From 300°
Speed 14 kn.

 
 
jpsmedia worldairports.se 2020   terms of use